New Delhi, India

11:58 PM IST on November 21, 2017 (GMT +0530)
Indira Gandhi International

Weather History for VIDP - July, 2013

Change the Weather History Date:

Tuesday, July 30, 2013

  Actual Average Record
Temperature  
Mean Temperature 86 °F -  
Max Temperature 89 °F 91 °F 107 °F (2002)
Min Temperature 82 °F 79 °F 76 °F (2016)
Cooling Degree Days 20    
Growing Degree Days 36 (Base 50)    
Moisture  
Dew Point 81 °F    
Average Humidity 86    
Maximum Humidity 100    
Minimum Humidity 79    
Precipitation  
Precipitation 0.00 in - - ()
Sea Level Pressure  
Sea Level Pressure 29.50 in    
Wind  
Wind Speed 4 mph ()    
Max Wind Speed 12 mph    
Max Gust Speed 23 mph    
Visibility 1.5 miles    
Events Thunderstorm    
Averages and records for this station are not official NWS values.
T = Trace of Precipitation, MM = Missing Value Source: Averaged Metar Reports

Daily Weather History Graph

Daily Weather History Graph

Search for Another Location

Airport or City:

Trip Planner

Search our weather history database for the weather conditions in past years. The results will help you decide how hot, cold, wet, or windy it might be!

Date:

Astronomy

Jul. 30, 2013 Rise Set
Actual Time 5:41 AM IST 7:13 PM IST
Civil Twilight 5:16 AM IST 7:39 PM IST
Nautical Twilight 4:45 AM IST 8:09 PM IST
Astronomical Twilight 4:13 AM IST 8:41 PM IST
Moon 12:18 AM IST (7/31) 1:10 PM IST (7/30)
Length of Visible Light 14h 23m
Length of Day
13h 31m
Last Quarter, 45% of the Moon is Illuminated
Jul 30
Last Quarter
Aug 7
New
Aug 14
First Quarter
Aug 21
Full
Aug 28
Last Quarter

Hourly Weather History & Observations

Time (IST) Temp. Heat Index Dew Point Humidity Pressure Visibility Wind Dir Wind Speed Gust Speed Precip Events Conditions
12:00 AM 84.2 °F 100.6 °F 82.4 °F 94% 29.53 in 0.7 mi Calm Calm - N/A   Mostly Cloudy
12:30 AM 84.2 °F 100.6 °F 82.4 °F 94% 29.53 in 0.9 mi Calm Calm - N/A   Mostly Cloudy
1:00 AM 84.2 °F 100.6 °F 82.4 °F 94% 29.53 in 0.9 mi Calm Calm - N/A   Mostly Cloudy
1:30 AM 82.4 °F 96.1 °F 82.4 °F 100% 29.53 in 0.9 mi Calm Calm - N/A   Mostly Cloudy
2:30 AM 82.4 °F 96.1 °F 82.4 °F 100% 29.50 in 0.9 mi SSW 3.5 mph - N/A   Mostly Cloudy
3:30 AM 84.2 °F 100.6 °F 82.4 °F 94% 29.50 in 1.0 mi SSW 4.6 mph - N/A   Mostly Cloudy
4:00 AM 84.2 °F 100.6 °F 82.4 °F 94% 29.50 in 1.0 mi SSW 3.5 mph - N/A   Mostly Cloudy
4:30 AM 84.2 °F 98.3 °F 80.6 °F 89% 29.50 in 1.3 mi WSW 4.6 mph - N/A   Mostly Cloudy
5:00 AM 84.2 °F 98.3 °F 80.6 °F 89% 29.50 in 1.3 mi WSW 4.6 mph - N/A   Mostly Cloudy
5:30 AM 82.4 °F 94.0 °F 80.6 °F 94% 29.50 in 1.3 mi SW 4.6 mph - N/A   Mostly Cloudy
6:00 AM 82.4 °F 94.0 °F 80.6 °F 94% 29.50 in 1.3 mi SW 4.6 mph - N/A   Mostly Cloudy
6:30 AM 82.4 °F 94.0 °F 80.6 °F 94% 29.53 in 1.4 mi SSW 8.1 mph - N/A   Mostly Cloudy
7:00 AM 84.2 °F 98.3 °F 80.6 °F 89% 29.53 in 1.4 mi SW 6.9 mph - N/A   Mostly Cloudy
7:30 AM 84.2 °F 98.3 °F 80.6 °F 89% 29.53 in 1.4 mi Calm Calm - N/A   Overcast
8:00 AM 82.4 °F 94.0 °F 80.6 °F 94% 29.53 in 1.3 mi WSW 4.6 mph - N/A   Overcast
8:30 AM 84.2 °F 100.6 °F 82.4 °F 94% 29.53 in 1.3 mi SW 8.1 mph - N/A   Overcast
9:00 AM 84.2 °F 100.6 °F 82.4 °F 94% 29.53 in 1.3 mi West 9.2 mph - N/A   Overcast
9:30 AM 84.2 °F 100.6 °F 82.4 °F 94% 29.56 in 1.3 mi WSW 8.1 mph - N/A   Overcast
10:00 AM 84.2 °F 98.3 °F 80.6 °F 89% 29.56 in 1.3 mi West 6.9 mph - N/A   Overcast
10:30 AM 84.2 °F 98.3 °F 80.6 °F 89% 29.56 in 1.6 mi West 5.8 mph - N/A   Overcast
11:00 AM 86.0 °F 101.9 °F 80.6 °F 84% 29.56 in 1.6 mi West 6.9 mph - N/A   Overcast
11:30 AM 86.0 °F 101.9 °F 80.6 °F 84% 29.56 in 1.6 mi West 10.4 mph - N/A   Overcast
12:00 PM 86.0 °F 101.9 °F 80.6 °F 84% 29.53 in 1.7 mi West 9.2 mph - N/A   Overcast
1:00 PM 87.8 °F 104.9 °F 80.6 °F 79% 29.53 in 1.9 mi WNW 6.9 mph - N/A   Overcast
1:30 PM 87.8 °F 104.9 °F 80.6 °F 79% 29.50 in 1.9 mi NW 6.9 mph - N/A   Overcast
2:00 PM 87.8 °F 104.9 °F 80.6 °F 79% 29.50 in 1.9 mi WNW 6.9 mph - N/A   Overcast
2:30 PM 87.8 °F 104.9 °F 80.6 °F 79% 29.47 in 1.9 mi West 6.9 mph - N/A   Overcast
3:00 PM 87.8 °F 104.9 °F 80.6 °F 79% 29.47 in 1.9 mi West 6.9 mph - N/A   Overcast
3:30 PM 89.6 °F 111.1 °F 82.4 °F 79% 29.44 in 1.9 mi West 6.9 mph - N/A   Mostly Cloudy
4:00 PM 89.6 °F 111.1 °F 82.4 °F 79% 29.44 in 1.9 mi West 6.9 mph - N/A   Mostly Cloudy
4:30 PM 89.6 °F 111.1 °F 82.4 °F 79% 29.44 in 1.9 mi West 5.8 mph - N/A   Mostly Cloudy
5:00 PM 89.6 °F 111.1 °F 82.4 °F 79% 29.44 in 1.9 mi West 5.8 mph - N/A   Mostly Cloudy
5:30 PM 89.6 °F 111.1 °F 82.4 °F 79% 29.44 in 1.9 mi WSW 3.5 mph - N/A   Mostly Cloudy
6:00 PM 89.6 °F 111.1 °F 82.4 °F 79% 29.44 in 1.9 mi West 3.5 mph - N/A   Mostly Cloudy
6:30 PM 89.6 °F 111.1 °F 82.4 °F 79% 29.44 in 1.9 mi West 4.6 mph - N/A   Mostly Cloudy
7:00 PM 89.6 °F 111.1 °F 82.4 °F 79% 29.44 in 1.9 mi West 4.6 mph - N/A   Mostly Cloudy
7:30 PM 89.6 °F 111.1 °F 82.4 °F 79% 29.44 in 1.6 mi West 4.6 mph - N/A   Mostly Cloudy
8:00 PM 87.8 °F 108.2 °F 82.4 °F 84% 29.47 in 1.6 mi West 4.6 mph - N/A   Mostly Cloudy
8:30 PM 87.8 °F 104.9 °F 80.6 °F 79% 29.47 in 1.7 mi West 2.3 mph - N/A   Mostly Cloudy
9:00 PM 87.8 °F 104.9 °F 80.6 °F 79% 29.47 in 1.7 mi Calm Calm - N/A   Mostly Cloudy
9:30 PM 86.0 °F 101.9 °F 80.6 °F 84% 29.47 in 1.6 mi West 3.5 mph - N/A   Mostly Cloudy
10:00 PM 86.0 °F 101.9 °F 80.6 °F 84% 29.50 in 1.7 mi West 3.5 mph - N/A   Mostly Cloudy
10:30 PM 84.2 °F 96.1 °F 78.8 °F 84% 29.53 in 1.6 mi NW 11.5 mph 23.0 mph N/A   Mostly Cloudy
11:30 PM 82.4 °F 90.9 °F 77.0 °F 84% 29.53 in 1.6 mi NNW 10.4 mph - N/A Thunderstorm Thunderstorm